When you browse on this site, cookies collect data to enhance your experience and personalize the content and advertising you see.
Visit our Privacy Policy to learn more. By continuing to use the site, you agree to this use of cookies and data.
  • In Hungary
  • List of Countries
  • For 7 days
  • Water Temperature
  • Weather Map
  • News
  • Weather Widgets
  • user-avatar
    Login

    Hourly Weather Tomasze

    Today, 22 September, Sunday

    Time Temperature Precipitation Wind Pressure Humidity
    00:00 +10°C° 0 mm 3 mps 755 mmHg 94%
    01:00 +9°C° 0 mm 3 mps 755 mmHg 95%
    02:00 +9°C° 0 mm 2 mps 755 mmHg 96%
    03:00 +9°C° 0 mm 2 mps 755 mmHg 96%
    04:00 +8°C° 0 mm 2 mps 754 mmHg 96%
    05:00 +9°C° 0 mm 2 mps 754 mmHg 94%
    06:00 +10°C° 0 mm 2 mps 754 mmHg 92%
    07:00 +10°C° 0 mm 2 mps 755 mmHg 90%
    08:00 +13°C° 0 mm 2 mps 754 mmHg 82%
    09:00 +15°C° 0 mm 2 mps 754 mmHg 73%
    10:00 +17°C° 0 mm 3 mps 754 mmHg 65%
    11:00 +19°C° 0 mm 3 mps 754 mmHg 61%
    12:00 +20°C° 0 mm 3 mps 753 mmHg 57%
    13:00 +21°C° 0 mm 3 mps 753 mmHg 53%
    14:00 +21°C° 0 mm 3 mps 753 mmHg 55%
    15:00 +20°C° 0 mm 2 mps 752 mmHg 58%
    16:00 +20°C° 0 mm 2 mps 752 mmHg 61%
    17:00 +18°C° 0 mm 2 mps 752 mmHg 66%
    18:00 +18°C° 0 mm 1 mps 752 mmHg 72%
    19:00 +15°C° 0 mm 1 mps 752 mmHg 78%
    20:00 +14°C° 0 mm 1 mps 753 mmHg 82%
    21:00 +13°C° 0 mm 2 mps 753 mmHg 85%
    22:00 +13°C° 0 mm 2 mps 753 mmHg 89%
    23:00 +11°C° 0 mm 3 mps 753 mmHg 90%

    Tomorrow, 23 September, Monday

    Time Temperature Precipitation Wind Pressure Humidity
    00:00 +10°C° 0 mm 3 mps 753 mmHg 92%
    01:00 +10°C° 0 mm 4 mps 754 mmHg 93%
    02:00 +8°C° 0 mm 4 mps 754 mmHg 91%
    03:00 +8°C° 0 mm 4 mps 754 mmHg 88%
    04:00 +7°C° 0 mm 4 mps 754 mmHg 86%
    05:00 +8°C° 0 mm 4 mps 754 mmHg 83%
    06:00 +8°C° 0 mm 4 mps 754 mmHg 80%
    07:00 +9°C° 0 mm 5 mps 754 mmHg 77%
    08:00 +10°C° 0 mm 5 mps 754 mmHg 73%
    09:00 +12°C° 0 mm 5 mps 754 mmHg 69%
    10:00 +13°C° 0 mm 5 mps 754 mmHg 66%
    11:00 +14°C° 0 mm 5 mps 754 mmHg 64%
    12:00 +14°C° 0 mm 5 mps 754 mmHg 62%
    13:00 +15°C° 0 mm 5 mps 754 mmHg 61%
    14:00 +14°C° 0 mm 4 mps 753 mmHg 62%
    15:00 +14°C° 0 mm 4 mps 753 mmHg 64%
    16:00 +14°C° 0 mm 4 mps 753 mmHg 65%
    17:00 +12°C° 0 mm 4 mps 753 mmHg 69%
    18:00 +11°C° 0 mm 4 mps 754 mmHg 74%
    19:00 +10°C° 0 mm 3 mps 754 mmHg 79%
    20:00 +9°C° 0 mm 3 mps 754 mmHg 80%
    21:00 +8°C° 0 mm 3 mps 754 mmHg 81%
    22:00 +8°C° 0 mm 3 mps 754 mmHg 82%
    23:00 +7°C° 0 mm 3 mps 754 mmHg 84%

    Day after tomorrow, 24 September, Tuesday

    Time Temperature Precipitation Wind Pressure Humidity
    00:00 +7°C° 0 mm 3 mps 754 mmHg 85%
    01:00 +7°C° 0 mm 3 mps 754 mmHg 86%
    02:00 +5°C° 0 mm 3 mps 753 mmHg 87%
    03:00 +5°C° 0 mm 3 mps 753 mmHg 88%
    04:00 +5°C° 0 mm 3 mps 753 mmHg 89%
    05:00 +7°C° 0 mm 3 mps 753 mmHg 87%
    06:00 +7°C° 0 mm 3 mps 752 mmHg 84%
    07:00 +8°C° 0 mm 3 mps 752 mmHg 82%
    08:00 +10°C° 0 mm 3 mps 752 mmHg 76%
    09:00 +12°C° 0 mm 3 mps 752 mmHg 71%
    10:00 +16°C° 0 mm 3 mps 752 mmHg 66%
    11:00 +17°C° 0 mm 4 mps 752 mmHg 62%
    12:00 +18°C° 0 mm 4 mps 751 mmHg 59%
    13:00 +19°C° 0 mm 4 mps 750 mmHg 56%
    14:00 +19°C° 0 mm 3 mps 750 mmHg 57%
    15:00 +19°C° 0 mm 3 mps 750 mmHg 59%
    16:00 +19°C° 0 mm 3 mps 749 mmHg 61%
    17:00 +17°C° 0 mm 3 mps 749 mmHg 65%
    18:00 +14°C° 0 mm 4 mps 749 mmHg 70%
    19:00 +12°C° 0 mm 4 mps 749 mmHg 75%
    20:00 +12°C° 0 mm 4 mps 749 mmHg 74%
    21:00 +12°C° 0 mm 4 mps 749 mmHg 73%
    22:00 +12°C° 0 mm 4 mps 749 mmHg 71%
    23:00 +12°C° 0 mm 4 mps 748 mmHg 72%

    25 September, Wednesday

    Time Temperature Precipitation Wind Pressure Humidity
    00:00 +12°C° 0 mm 4 mps 748 mmHg 73%
    01:00 +11°C° 0 mm 4 mps 748 mmHg 74%
    02:00 +11°C° 0 mm 3 mps 747 mmHg 76%
    03:00 +11°C° 0 mm 3 mps 747 mmHg 78%
    04:00 +11°C° 0 mm 3 mps 747 mmHg 81%
    05:00 +11°C° 0.2 mm 3 mps 746 mmHg 83%
    06:00 +11°C° 0.2 mm 3 mps 746 mmHg 85%
    07:00 +13°C° 0.2 mm 2 mps 746 mmHg 87%
    08:00 +12°C° 0.3 mm 3 mps 746 mmHg 89%
    09:00 +12°C° 0.3 mm 3 mps 746 mmHg 90%
    10:00 +13°C° 0.3 mm 3 mps 746 mmHg 91%
    11:00 +13°C° 0.3 mm 3 mps 746 mmHg 91%
    12:00 +15°C° 0.3 mm 2 mps 745 mmHg 90%
    13:00 +15°C° 0.3 mm 2 mps 745 mmHg 89%
    14:00 +16°C° 0.5 mm 2 mps 745 mmHg 87%
    15:00 +16°C° 0.5 mm 2 mps 745 mmHg 84%
    16:00 +17°C° 0.5 mm 2 mps 744 mmHg 82%
    17:00 +16°C° 0.1 mm 2 mps 744 mmHg 84%
    18:00 +15°C° 0.1 mm 2 mps 744 mmHg 85%
    19:00 +15°C° 0.1 mm 2 mps 744 mmHg 87%
    20:00 +15°C° 0.1 mm 2 mps 745 mmHg 87%
    21:00 +13°C° 0.1 mm 3 mps 745 mmHg 88%
    22:00 +13°C° 0.1 mm 3 mps 745 mmHg 88%
    23:00 +13°C° 0 mm 3 mps 745 mmHg 90%

    26 September, Thursday

    Time Temperature Precipitation Wind Pressure Humidity
    00:00 +13°C° 0 mm 3 mps 745 mmHg 91%
    01:00 +13°C° 0 mm 3 mps 745 mmHg 93%
    02:00 +13°C° 0.1 mm 3 mps 745 mmHg 94%
    03:00 +13°C° 0.1 mm 3 mps 745 mmHg 95%
    04:00 +13°C° 0.1 mm 3 mps 745 mmHg 95%
    05:00 +13°C° 0.3 mm 4 mps 745 mmHg 94%
    06:00 +13°C° 0.3 mm 4 mps 745 mmHg 93%
    07:00 +13°C° 0.3 mm 5 mps 745 mmHg 92%
    08:00 +13°C° 0.3 mm 5 mps 746 mmHg 90%
    09:00 +13°C° 0.3 mm 5 mps 746 mmHg 88%
    10:00 +14°C° 0.3 mm 5 mps 747 mmHg 87%
    11:00 +14°C° 0.4 mm 5 mps 747 mmHg 87%
    12:00 +14°C° 0.4 mm 5 mps 747 mmHg 87%
    13:00 +14°C° 0.4 mm 5 mps 747 mmHg 87%
    14:00 +14°C° 0.1 mm 4 mps 747 mmHg 86%
    15:00 +14°C° 0.1 mm 3 mps 747 mmHg 85%
    16:00 +14°C° 0.1 mm 3 mps 747 mmHg 83%
    17:00 +14°C° 0.1 mm 3 mps 748 mmHg 86%
    18:00 +13°C° 0.1 mm 3 mps 748 mmHg 89%
    19:00 +12°C° 0.1 mm 3 mps 748 mmHg 92%
    20:00 +12°C° 0 mm 3 mps 749 mmHg 93%
    21:00 +11°C° 0 mm 3 mps 749 mmHg 95%
    22:00 +10°C° 0 mm 3 mps 749 mmHg 96%
    23:00 +10°C° 0 mm 3 mps 749 mmHg 96%

    27 September, Friday

    Time Temperature Precipitation Wind Pressure Humidity
    00:00 +10°C° 0 mm 2 mps 750 mmHg 95%
    01:00 +10°C° 0 mm 2 mps 750 mmHg 95%
    02:00 +10°C° 0 mm 2 mps 750 mmHg 94%
    03:00 +10°C° 0 mm 2 mps 750 mmHg 93%
    04:00 +10°C° 0 mm 2 mps 750 mmHg 92%
    05:00 +10°C° 0 mm 2 mps 750 mmHg 90%
    06:00 +10°C° 0 mm 2 mps 751 mmHg 89%
    07:00 +10°C° 0 mm 2 mps 751 mmHg 87%
    08:00 +10°C° 0 mm 2 mps 751 mmHg 84%
    09:00 +12°C° 0 mm 2 mps 751 mmHg 82%
    10:00 +12°C° 0 mm 2 mps 752 mmHg 79%
    11:00 +12°C° 0 mm 2 mps 752 mmHg 77%
    12:00 +13°C° 0 mm 2 mps 751 mmHg 75%
    13:00 +13°C° 0 mm 1 mps 751 mmHg 73%
    14:00 +13°C° 0 mm 1 mps 751 mmHg 73%
    15:00 +13°C° 0 mm 1 mps 751 mmHg 73%
    16:00 +14°C° 0 mm 1 mps 752 mmHg 73%
    17:00 +13°C° 0 mm 2 mps 752 mmHg 76%
    18:00 +12°C° 0 mm 2 mps 752 mmHg 79%
    19:00 +10°C° 0 mm 3 mps 752 mmHg 82%
    20:00 +9°C° 0 mm 3 mps 752 mmHg 83%
    21:00 +9°C° 0 mm 3 mps 752 mmHg 83%
    22:00 +8°C° 0 mm 3 mps 752 mmHg 84%
    23:00 +8°C° 0 mm 3 mps 752 mmHg 84%
    Show more